Lid_Strength_Index
-0 -1 -1 -1 -1 -1 -1 -1 -1 -1 -1 -1 -0 -1 -1 -1 -1 1 4 1 0 -2 -1 1 2 3 4 5 5 7 11 14 13 12 11 8 9 9 8 8 7 6 6 5 3
-0 -1 -1 -1 -1 -1 -1 -1 -1 -1 -1 -1 -0 -0 -1 -1 2 4 0 -2 -3 -2 2 4 5 4 6 6 6 8 12 12 9 9 10 8 9 9 9 9 9 7 5 3 3
0 -0 -1 -1 -1 -1 -1 -1 -1 -1 -1 -1 -1 -0 -1 0 6 7 -1 -2 -3 -1 1 2 3 5 8 7 8 9 12 9 9 8 8 8 9 8 9 10 9 8 6 4 5
1 0 -0 -0 -1 -1 -1 -1 -1 -1 -1 -1 -1 -1 -0 3 17 5 -2 -2 -2 -0 2 4 5 8 9 9 7 12 8 8 8 7 8 9 7 9 9 9 7 7 6 4 5
1 1 0 0 -0 -1 -1 -1 -1 -1 -1 -1 -1 -1 2 7 8 4 -1 -1 -0 1 3 4 7 7 10 8 8 10 9 8 7 8 7 7 8 8 8 6 6 6 5 5 4
1 1 1 0 0 -0 -1 -1 -1 -1 -1 -1 -1 -0 6 11 4 4 3 0 1 2 4 4 6 5 8 8 9 8 8 8 8 8 8 9 9 8 7 6 6 6 5 5 4
1 1 1 0 0 -0 -1 -1 -1 -1 -1 -1 -1 2 6 9 5 5 3 2 2 2 4 3 4 6 7 10 7 8 10 9 9 8 8 8 10 10 7 6 6 6 5 5 4
1 1 1 1 1 -0 -0 -1 -1 -1 -1 -1 -1 3 8 4 3 5 5 4 1 2 3 2 3 5 7 6 8 11 11 15 10 8 8 8 12 8 6 7 7 6 6 6 5
1 1 1 1 1 0 -0 -1 -1 -1 -2 -1 2 5 9 3 6 5 5 5 2 2 2 2 3 7 8 11 14 12 16 14 12 8 9 9 12 9 7 7 7 7 7 7 6
1 1 1 0 1 -0 -1 -1 -1 -1 -0 -0 2 7 7 9 6 6 5 5 4 4 6 6 7 10 10 12 17 16 16 14 14 11 9 11 11 9 8 8 8 8 7 7 7
1 1 0 -0 -0 -1 -1 1 4 5 4 6 7 8 8 7 6 7 6 6 5 7 10 8 11 13 12 10 11 12 14 14 13 9 11 11 11 9 8 9 9 8 8 8 6
1 1 0 0 -0 -1 -0 4 5 4 8 4 4 5 6 6 9 8 5 8 8 11 9 11 13 11 9 10 11 12 14 14 12 10 11 11 12 10 9 9 9 8 8 8 7
1 0 0 -0 -0 -0 2 3 1 2 8 7 5 6 5 6 9 9 6 7 9 10 10 12 12 9 10 11 13 13 14 14 14 12 11 12 13 11 10 10 9 8 7 7 7
-0 0 0 -0 2 1 3 1 -0 2 12 11 9 6 5 5 9 6 6 6 8 11 9 10 9 10 11 12 11 15 11 11 12 14 17 12 17 14 12 11 10 9 8 8 7
-1 -1 -1 -0 2 4 2 0 0 3 20 10 9 3 4 7 9 8 5 6 10 11 10 12 11 12 12 11 10 12 10 11 12 14 16 15 17 16 13 13 11 9 8 8 7
-1 -1 -1 0 2 1 0 0 2 14 20 13 9 9 9 8 8 8 8 5 6 10 9 11 9 9 10 9 9 9 11 12 13 14 18 15 16 15 13 13 11 9 8 8 8
-1 -1 -0 -0 4 1 0 4 14 18 11 13 12 10 10 11 10 9 10 11 12 15 15 12 11 10 9 12 10 11 13 18 20 19 20 14 16 14 13 11 10 9 8 9 8
-1 -1 -0 0 1 1 3 10 18 14 13 10 10 10 13 11 11 10 11 13 10 12 14 16 18 11 10 11 12 12 12 17 23 21 19 15 18 14 10 8 8 8 8 8 8
-1 1 2 1 0 2 7 15 15 13 11 12 11 14 13 11 11 12 12 12 10 10 15 15 15 10 9 9 9 12 15 11 16 18 19 17 14 11 10 10 9 9 9 10 9
2 3 3 1 1 5 11 13 12 9 9 10 15 13 15 13 13 13 13 10 11 9 10 13 16 11 10 10 9 11 10 16 15 21 23 18 18 15 13 11 10 10 10 9 10
3 7 4 0 1 8 14 13 12 8 9 10 12 13 13 14 13 13 13 11 9 10 9 12 14 14 11 13 13 12 14 14 14 16 19 21 18 12 11 10 11 11 10 10 10
5 10 4 1 9 9 12 12 8 9 8 10 9 11 12 12 13 13 13 11 8 9 12 11 14 16 14 11 9 10 12 12 17 18 16 17 16 11 10 10 11 11 10 10 10
7 7 2 3 13 12 12 11 9 10 10 10 11 10 10 12 14 12 12 9 8 9 10 10 14 20 16 13 12 13 12 11 13 14 17 18 16 10 11 11 11 11 11 11 11
7 10 8 6 10 11 14 14 13 8 9 10 11 9 11 12 11 12 12 9 8 8 7 8 13 14 17 15 12 14 13 12 13 16 16 15 13 12 12 12 12 12 11 11 11
6 9 11 11 10 11 12 12 12 12 10 10 11 10 12 14 12 13 11 11 9 8 8 9 14 15 15 14 12 13 13 12 14 13 16 13 14 11 11 11 11 10 10 12 12
8 9 7 10 8 11 10 11 11 10 10 12 12 10 10 12 11 13 12 11 12 9 10 10 14 14 16 14 14 16 12 12 12 12 13 13 13 10 11 10 13 13 13 13 14
6 7 8 8 10 11 11 10 10 9 9 10 10 10 11 10 8 8 8 8 9 10 11 11 13 14 17 14 14 18 15 13 12 12 12 15 11 10 13 14 15 15 15 15 15